Flag for U.S.A. Weather past 2 weeks in Bakersfield, California, U.S.A.

Now
80 °F

Sunny.


Feels Like: 79 °F
Forecast: 61 / 93 °F
Wind: 6 mph from West

Location: Meadows Field

Current Time: Oct 1, 2014 at 8:03:15 PM

Latest Report: Oct 1, 2014 at 6:54 PM


Visibility: 10 mi

Pressure: 29.85 "Hg

Humidity: 31%

Dew point: 47 °F

Location of BakersfieldLocation

Historic Weather in Bakersfield — Graph

°F

Bakersfield temperature yesterday

Maximum temperature yesterday: 84 °F (at 4:54 PM)
Minimum temperature yesterday: 64 °F (at 6:54 AM)
Average temperature yesterday: 73 °F

Past Weeks' High & Low Weather Summary

 TemperatureHumidityPressure
High99 °F (Sep 17, 3:54 PM)75% (Sep 29, 7:54 AM)30.01 "Hg (Sep 29, 7:54 AM)
Low60 °F (Sep 27, 5:54 AM)17% (Sep 17, 4:54 PM)29.67 "Hg (Sep 17, 4:54 PM)
Average76 °F43%29.86 "Hg
* Reported Sep 16 6:54 PM — Oct 1 6:54 PM, Bakersfield, Weather by CustomWeather, © 2014

Note: Actual official high and low records may vary slightly from our data, if they occured in-between our weather recording intervals... More about our weather records

Advertising

Bakersfield weather history for previous 24 hours

 ConditionsComfort  
Time TempWeatherWind HumidityBarometerVisibility
6:54 PM
Oct 1
80 °FSunny.6 mph31%29.85 "Hg10 mi
5:54 PM83 °FSunny.5 mph28%29.83 "Hg10 mi
4:54 PM83 °FSunny.9 mph28%29.83 "Hg10 mi
3:54 PM83 °FSunny.8 mph31%29.82 "Hg10 mi
2:54 PM83 °FSunny.9 mph31%29.83 "Hg10 mi
1:54 PM80 °FSunny.5 mph32%29.83 "Hg10 mi
12:54 PM79 °FSunny.10 mph38%29.85 "Hg10 mi
11:54 AM77 °FSunny.5 mph39%29.87 "Hg10 mi
10:54 AM75 °FSunny.No wind42%29.89 "Hg10 mi
9:54 AM72 °FSunny.No wind46%29.90 "Hg10 mi
8:54 AM68 °FSunny.No wind55%29.89 "Hg10 mi
7:54 AM64 °FSunny.3 mph61%29.87 "Hg9 mi
6:54 AM64 °FClear.3 mph61%29.86 "Hg10 mi
5:54 AM63 °FClear.5 mph63%29.84 "Hg10 mi
4:54 AM65 °FClear.3 mph61%29.83 "Hg10 mi
3:54 AM64 °FClear.3 mph63%29.81 "Hg10 mi
2:54 AM63 °FClear.6 mph68%29.80 "Hg10 mi
1:54 AM65 °FClear.7 mph63%29.80 "Hg10 mi
12:54 AM73 °FClear.9 mph38%29.79 "Hg10 mi
11:54 PM
Sep 30
69 °FClear.8 mph51%29.80 "Hg10 mi
10:54 PM71 °FClear.No wind42%29.78 "Hg10 mi
9:54 PM69 °FClear.5 mph42%29.78 "Hg10 mi
8:54 PM74 °FClear.3 mph37%29.77 "Hg10 mi
Weather by CustomWeather, © 2014

See weather overviewHow to use our weather pages